excitement

Flag for Germany Weather past 2 weeks in Viersen, North Rhine-Westphalia, Germany

Now
59 °F

Passing clouds.


Feels Like: 59 °F
Forecast: 51 / 60 °F
Wind: 2 mph from North

Location: Monchengladbach Airport

Current Time: Sep 23, 2014 at 12:45:30 PM

Latest Report: Sep 23, 2014 at 12:20 PM


Visibility: N/A

Pressure: 30.18 "Hg

Humidity: 63%

Dew point: 46 °F

Location of ViersenLocation

Historic Weather in Viersen — Graph

°F

Viersen temperature yesterday

Maximum temperature yesterday: 61 °F (at 12:20 PM)
Minimum temperature yesterday: 52 °F (at 1:20 PM)
Average temperature yesterday: 58 °F

Past Weeks' High & Low Weather Summary

 TemperatureHumidityPressure
High77 °F (Sep 17, 3:20 PM)100% (Sep 11, 9:50 AM)30.24 "Hg (Sep 11, 9:50 AM)
Low46 °F (Sep 23, 7:50 AM)47% (Sep 17, 5:50 PM)29.80 "Hg (Sep 18, 7:50 PM)
Average64 °F75%30.04 "Hg
* Reported Sep 8 11:20 AM — Sep 23 11:50 AM, Viersen, Weather by CustomWeather, © 2014

Note: Actual official high and low records may vary slightly from our data, if they occured in-between our weather recording intervals... More about our weather records

Advertising

Viersen weather history for previous 24 hours

 ConditionsComfort  
Time TempWeatherWind HumidityBarometerVisibility
11:50 AM
Sep 23
59 °FClear.2 mph63%30.18 "Hg10 mi
11:20 AM57 °FSunny.2 mph72%30.18 "Hg10 mi
10:50 AM55 °FClear.3 mph72%30.18 "Hg5 mi
10:20 AM52 °FClear.2 mph88%30.18 "Hg5 mi
9:50 AM52 °FClear.No wind88%30.18 "Hg5 mi
9:20 AM50 °FClear.No wind88%30.18 "Hg5 mi
8:50 AM48 °FSunny.No wind94%30.18 "Hg10 mi
8:20 AM48 °FPartly sunny.No wind94%30.18 "HgN/A
7:50 AM46 °FSunny.2 mph93%30.18 "Hg10 mi
8:20 PM
Sep 22
55 °FClear.8 mph72%30.15 "Hg10 mi
7:50 PM57 °FClear.8 mph67%30.15 "Hg10 mi
7:20 PM57 °FClear.12 mph67%30.15 "Hg10 mi
6:50 PM59 °FClear.9 mph63%30.12 "Hg10 mi
6:20 PM61 °FClear.10 mph59%30.12 "Hg10 mi
5:50 PM61 °FPassing clouds.14 mph55%30.12 "HgN/A
5:20 PM61 °FPassing clouds.14 mph59%30.12 "HgN/A
4:50 PM61 °FPassing clouds.18 mph59%30.12 "HgN/A
4:20 PM61 °FClear.16 mph55%30.12 "Hg10 mi
3:50 PM61 °FPassing clouds.15 mph52%30.12 "HgN/A
3:20 PM61 °FPassing clouds.14 mph59%30.09 "HgN/A
2:50 PM57 °FPassing clouds.12 mph77%30.09 "HgN/A
2:20 PM59 °FRain showers. Passing clouds.10 mph77%30.09 "Hg5 mi
1:50 PM55 °FPassing clouds.14 mph88%30.12 "HgN/A
1:20 PM52 °FLots of rain. Partly cloudy.18 mph94%30.12 "Hg2 mi
12:50 PM59 °FPassing clouds.15 mph68%30.09 "HgN/A
12:20 PM61 °FPassing clouds.18 mph59%30.09 "HgN/A
Weather by CustomWeather, © 2014

See weather overviewHow to use our weather pages